This is the latest recevied weather packets stored in our database for station/object VK3BYD-3. If no packets are shown the sender has not sent any weather packets the latest 10 day(s).
| Time | Temp. | Humidity | Pressure | Rain* | Wind** | Luminosity | Snow |
|---|---|---|---|---|---|---|---|
| 1777325020 | 5° C | 97% | 1026 hPa | 0 mm | - | - | - |
| 1777324118 | 5° C | 97% | 1025.8 hPa | 0 mm | - | - | - |
| 1777323215 | 5° C | 97% | 1025.5 hPa | 0 mm | - | - | - |
| 1777322316 | 4.44° C | 96% | 1025.3 hPa | 0 mm | - | - | - |
| 1777321414 | 4.44° C | 96% | 1025.1 hPa | 0 mm | - | - | - |
| 1777320513 | 4.44° C | 95% | 1025 hPa | 0 mm | - | - | - |
| 1777319611 | 4.44° C | 95% | 1024.9 hPa | 0 mm | - | - | - |
| 1777318709 | 5° C | 95% | 1024.8 hPa | 0 mm | - | - | - |
| 1777317809 | 5° C | 95% | 1024.4 hPa | 0 mm | - | - | - |
| 1777316908 | 5° C | 95% | 1024.4 hPa | 0 mm | - | - | - |
| 1777316005 | 5° C | 94% | 1024.3 hPa | 0 mm | - | - | - |
| 1777315103 | 5.56° C | 94% | 1024 hPa | 0 mm | - | - | - |
| 1777314201 | 6.67° C | 95% | 1023.9 hPa | 0 mm | - | - | - |
| 1777313301 | 6.11° C | 95% | 1023.8 hPa | 0 mm | - | - | - |
| 1777312402 | 5.56° C | 94% | 1023.8 hPa | 0 mm | - | - | - |
| 1777311501 | 6.11° C | 93% | 1023.6 hPa | 0 mm | - | - | - |
| 1777310600 | 6.11° C | 93% | 1023.7 hPa | 0 mm | - | - | - |
| 1777309698 | 6.67° C | 92% | 1023.6 hPa | 0 mm | - | - | - |
| 1777308795 | 7.78° C | 92% | 1023.8 hPa | 0 mm | - | - | - |
| 1777307895 | 7.78° C | 95% | 1023.7 hPa | 0 mm | - | - | - |
| 1777306993 | 6.67° C | 95% | 1023.8 hPa | 0 mm | - | - | - |
| 1777306091 | 6.11° C | 93% | 1024 hPa | 0 mm | - | - | - |
| 1777305189 | 6.67° C | 92% | 1024 hPa | 0 mm | - | - | - |
| 1777304289 | 7.22° C | 91% | 1024.1 hPa | 0 mm | - | - | - |
| 1777303387 | 7.22° C | 95% | 1024.2 hPa | 0 mm | - | - | - |
* Rain latest hour (hover to see other rain measurements)
** Current wind speed in m/s (hover to see current wind gust speed)